Weather History for KUGN - May, 2014

Change the Weather History Date:

Thursday, May 29, 2014

  Actual Average Record
Temperature  
Mean Temperature 58 °F -  
Max Temperature 67 °F 70 °F 86 °F (1999)
Min Temperature 48 °F 49 °F 39 °F (2001)
Degree Days  
Heating Degree Days 7 7  
Month to date heating degree days 294 297  
Since 1 July heating degree days 7935 6739  
Cooling Degree Days 0 1  
Month to date cooling degree days 23 16  
Year to date cooling degree days 23 20  
Growing Degree Days 8 (Base 50)    
Moisture  
Dew Point 50 °F    
Average Humidity 77    
Maximum Humidity 86    
Minimum Humidity 67    
Precipitation  
Precipitation 0.00 in 0.13 in 0.55 in (2011)
Month to date precipitation 5.04 3.76  
Year to date precipitation 10.84 12.61  
Sea Level Pressure  
Sea Level Pressure 30.10 in    
Wind  
Wind Speed 6 mph (NNE)    
Max Wind Speed 14 mph    
Max Gust Speed 18 mph    
Visibility 10 miles    
Events      
T = Trace of Precipitation, MM = Missing Value Source: NWS Daily Summary

Daily Weather History Graph

Daily Weather History Graph

Search for Another Location

Airport or City:

Trip Planner

Search our weather history database for the weather conditions in past years. The results will help you decide how hot, cold, wet, or windy it might be!

Date:

Astronomy

May. 29, 2014 Rise Set
Actual Time 5:18 AM CDT 8:19 PM CDT
Civil Twilight 4:44 AM CDT 8:53 PM CDT
Nautical Twilight 4:02 AM CDT 9:36 PM CDT
Astronomical Twilight 3:11 AM CDT 10:27 PM CDT
Moon 6:13 AM CDT (5/29) 9:08 PM CDT (5/29)
Length of Visible Light 16h 08m
Length of Day
15h 01m
New Moon, 1% of the Moon is Illuminated
May 29
New Moon
Jun 5
First Quarter
Jun 12
Full
Jun 19
Last Quarter
Jun 27
New

Hourly Weather History & Observations

Time (CDT) Temp. Dew Point Humidity Pressure Visibility Wind Dir Wind Speed Gust Speed Precip Events Conditions
12:52 AM 52.0 °F 44.1 °F 74% 30.06 in 10.0 mi North 3.5 mph - N/A   Clear
1:52 AM 51.1 °F 44.1 °F 77% 30.06 in 10.0 mi NNE 3.5 mph - N/A   Clear
3:22 AM 50.0 °F 46.0 °F 86% 30.06 in 10.0 mi North 4.6 mph - N/A   Mostly Cloudy
3:32 AM 50.0 °F 46.0 °F 86% 30.06 in 10.0 mi NNE 5.8 mph - N/A   Scattered Clouds
3:52 AM 50.0 °F 46.9 °F 89% 30.06 in 10.0 mi NNE 4.6 mph - N/A   Partly Cloudy
4:05 AM 51.1 °F 46.9 °F 86% 30.07 in 10.0 mi North 4.6 mph - N/A   Mostly Cloudy
4:50 AM 51.8 °F 46.4 °F 82% 30.07 in 10.0 mi North 8.1 mph - N/A   Overcast
4:52 AM 52.0 °F 46.9 °F 83% 30.07 in 10.0 mi NNE 5.8 mph - N/A   Overcast
5:52 AM 53.1 °F 48.0 °F 83% 30.08 in 10.0 mi ENE 6.9 mph - N/A   Overcast
6:52 AM 53.1 °F 48.0 °F 83% 30.10 in 10.0 mi NNE 3.5 mph - N/A   Overcast
7:52 AM 55.0 °F 48.9 °F 80% 30.12 in 10.0 mi NNE 6.9 mph - N/A   Overcast
8:52 AM 57.0 °F 51.1 °F 81% 30.14 in 10.0 mi ENE 6.9 mph - N/A   Overcast
9:29 AM 59.0 °F 52.0 °F 78% 30.15 in 10.0 mi NE 6.9 mph - N/A   Clear
9:52 AM 59.0 °F 52.0 °F 78% 30.15 in 10.0 mi NE 6.9 mph - N/A   Scattered Clouds
10:52 AM 62.1 °F 54.0 °F 75% 30.14 in 10.0 mi ENE 8.1 mph - N/A   Partly Cloudy
11:52 AM 64.9 °F 55.0 °F 70% 30.13 in 10.0 mi ENE 5.8 mph - N/A   Clear
12:52 PM 61.0 °F 52.0 °F 72% 30.14 in 10.0 mi NE 12.7 mph - N/A   Clear
1:52 PM 62.1 °F 52.0 °F 70% 30.12 in 10.0 mi ENE 5.8 mph - N/A   Clear
2:52 PM 66.0 °F 55.0 °F 68% 30.11 in 9.0 mi ENE 9.2 mph - N/A   Clear
3:52 PM 64.0 °F 55.0 °F 73% 30.10 in 8.0 mi NE 8.1 mph - N/A   Clear
4:52 PM 64.0 °F 55.0 °F 73% 30.10 in 9.0 mi North 8.1 mph - N/A   Clear
5:52 PM 66.0 °F 55.9 °F 70% 30.10 in 10.0 mi NNE 9.2 mph - N/A   Clear
6:52 PM 66.0 °F 55.0 °F 68% 30.09 in 10.0 mi NNE 4.6 mph - N/A   Clear
7:52 PM 59.0 °F 53.1 °F 81% 30.11 in 9.0 mi NE 5.8 mph - N/A   Clear
8:52 PM 55.0 °F 51.1 °F 86% 30.11 in 10.0 mi NNE 9.2 mph - N/A   Clear
9:52 PM 53.1 °F 46.9 °F 80% 30.13 in 10.0 mi NNE 9.2 mph - N/A   Clear
10:52 PM 52.0 °F 46.0 °F 80% 30.14 in 10.0 mi NNE 5.8 mph - N/A   Clear
11:52 PM 51.1 °F 45.0 °F 80% 30.14 in 10.0 mi Calm Calm - N/A   Clear